Ely, MN

4:00 PM CDT on May 23, 2018 (GMT -0500)
Ely Municipal

Weather History for KELO - February, 2014

Change the Weather History Date:

Tuesday, February 11, 2014

  Actual Average Record
Temperature  
Mean Temperature -8 °F -  
Max Temperature 15 °F 22 °F 44 °F (2005)
Min Temperature -31 °F 1 °F -32 °F (2008)
Degree Days  
Heating Degree Days 73    
Moisture  
Dew Point -14 °F    
Average Humidity 65    
Maximum Humidity 85    
Minimum Humidity 35    
Precipitation  
Precipitation 0.00 in - - ()
Sea Level Pressure  
Sea Level Pressure 30.07 in    
Wind  
Wind Speed 5 mph (SSW)    
Max Wind Speed 18 mph    
Max Gust Speed 26 mph    
Visibility 9 miles    
Events Snow    
Averages and records for this station are not official NWS values.
T = Trace of Precipitation, MM = Missing Value Source: NWS Daily Summary

Daily Weather History Graph

Daily Weather History Graph

Search for Another Location

Airport or City:

Astronomy

Feb. 11, 2014 Rise Set
Actual Time 7:19 AM CST 5:23 PM CST
Civil Twilight 6:47 AM CST 5:56 PM CST
Nautical Twilight 6:11 AM CST 6:32 PM CST
Astronomical Twilight 5:35 AM CST 7:08 PM CST
Moon 2:39 PM CST (2/11) 5:03 AM CST (2/11)
Length of Visible Light 11h 08m
Length of Day
10h 04m
Waxing Gibbous, 91% of the Moon is Illuminated
Feb 11
Waxing Gibbous
Feb 14
Full
Feb 22
Last Quarter
Mar 1
New
Mar 8
First Quarter

Hourly Weather History & Observations

Time (CST) Temp. Windchill Dew Point Humidity Pressure Visibility Wind Dir Wind Speed Gust Speed Precip Events Conditions
12:13 AM -22.0 °F - -27.4 °F 76% 30.30 in 10.0 mi Calm Calm - N/A   Clear
12:33 AM -23.8 °F - -29.2 °F 76% 30.30 in 10.0 mi Calm Calm - N/A   Clear
12:52 AM -23.8 °F - -29.2 °F 76% 30.30 in 10.0 mi Calm Calm - N/A   Clear
1:13 AM -23.8 °F - -29.2 °F 76% 30.30 in 10.0 mi Calm Calm - N/A   Clear
1:33 AM -25.6 °F - -31.0 °F 76% 30.30 in 10.0 mi Calm Calm - N/A   Clear
1:52 AM -25.6 °F - -32.8 °F 69% 30.30 in 10.0 mi Calm Calm - N/A   Clear
2:13 AM -25.6 °F - -31.0 °F 76% 30.30 in 10.0 mi Calm Calm - N/A   Clear
2:33 AM -25.6 °F - -32.8 °F 69% 30.30 in 10.0 mi Calm Calm - N/A   Clear
2:52 AM -25.6 °F - -32.8 °F 69% 30.29 in 10.0 mi Calm Calm - N/A   Clear
3:13 AM -27.4 °F - -32.8 °F 75% 30.30 in 10.0 mi Calm Calm - N/A   Clear
3:33 AM -27.4 °F - -32.8 °F 75% 30.30 in 10.0 mi Calm Calm - N/A   Clear
3:52 AM -27.4 °F - -32.8 °F 75% 30.29 in 10.0 mi Calm Calm - N/A   Clear
4:13 AM -27.4 °F - -34.6 °F 69% 30.29 in 10.0 mi Calm Calm - N/A   Clear
4:33 AM -29.2 °F - -34.6 °F 75% 30.28 in 10.0 mi Calm Calm - N/A   Clear
4:52 AM -29.2 °F - -34.6 °F 75% 30.28 in 10.0 mi Calm Calm - N/A   Clear
5:13 AM -29.2 °F - -34.6 °F 75% 30.27 in 10.0 mi Calm Calm - N/A   Clear
5:33 AM -29.2 °F - -34.6 °F 75% 30.27 in 10.0 mi Calm Calm - N/A   Clear
5:52 AM -29.2 °F - -36.4 °F 68% 30.27 in 10.0 mi Calm Calm - N/A   Clear
6:13 AM -29.2 °F - -34.6 °F 75% 30.26 in 10.0 mi Calm Calm - N/A   Clear
6:33 AM -29.2 °F - -34.6 °F 75% 30.25 in 10.0 mi Calm Calm - N/A   Clear
6:53 AM -31.0 °F - -36.4 °F 75% 30.25 in 10.0 mi Calm Calm - N/A   Clear
7:12 AM -29.2 °F -41.2 °F -36.4 °F 68% 30.23 in 10.0 mi SE 3.5 mph - N/A   Clear
7:33 AM -29.2 °F - -36.4 °F 68% 30.21 in 10.0 mi Calm Calm - N/A   Clear
7:53 AM -29.2 °F - -36.4 °F 68% 30.20 in 10.0 mi Calm Calm - N/A   Clear
8:12 AM -27.4 °F - -34.6 °F 69% 30.20 in 10.0 mi Calm Calm - N/A   Clear
8:33 AM -22.0 °F - -27.4 °F 76% 30.18 in 10.0 mi Calm Calm - N/A   Clear
8:52 AM -16.6 °F - -23.8 °F 70% 30.18 in 10.0 mi Calm Calm - N/A   Clear
9:13 AM -9.4 °F - -14.8 °F 77% 30.17 in 10.0 mi Calm Calm - N/A   Clear
9:33 AM -2.2 °F -18.0 °F -9.4 °F 71% 30.16 in 10.0 mi South 9.2 mph - N/A   Clear
9:52 AM -0.4 °F -18.4 °F -9.4 °F 66% 30.15 in 10.0 mi South 12.7 mph 17.3 mph N/A   Clear
10:13 AM 1.4 °F -12.5 °F -9.4 °F 61% 30.16 in 10.0 mi SSW 8.1 mph - N/A   Clear
10:33 AM 3.2 °F -13.1 °F -9.4 °F 56% 30.15 in 10.0 mi South 11.5 mph 17.3 mph N/A   Clear
10:52 AM 5.0 °F -10.8 °F -7.6 °F 56% 30.13 in 10.0 mi South 11.5 mph 17.3 mph N/A   Clear
11:13 AM 8.6 °F -2.6 °F -7.6 °F 48% 30.13 in 10.0 mi SSW 6.9 mph - N/A   Clear
11:33 AM 8.6 °F -8.9 °F -7.6 °F 48% 30.11 in 10.0 mi SSW 16.1 mph 21.9 mph N/A   Clear
11:52 AM 8.6 °F -5.5 °F -7.6 °F 48% 30.09 in 10.0 mi South 10.4 mph 23.0 mph N/A   Clear
12:13 PM 12.2 °F -3.7 °F -7.6 °F 41% 30.08 in 10.0 mi SSW 15.0 mph 18.4 mph N/A   Clear
12:33 PM 12.2 °F -2.5 °F -7.6 °F 41% 30.07 in 10.0 mi SSW 12.7 mph 19.6 mph N/A   Clear
12:52 PM 12.2 °F -4.8 °F -7.6 °F 41% 30.04 in 10.0 mi South 17.3 mph 23.0 mph N/A   Clear
1:13 PM 15.8 °F 2.7 °F -7.6 °F 35% 30.03 in 10.0 mi SSW 11.5 mph 19.6 mph N/A   Clear
1:33 PM 14.0 °F -2.5 °F -7.6 °F 38% 30.01 in 10.0 mi South 17.3 mph 26.5 mph N/A   Clear
1:52 PM 14.0 °F -0.2 °F -7.6 °F 38% 29.99 in 10.0 mi South 12.7 mph - N/A   Clear
2:13 PM 15.8 °F 0.3 °F -5.8 °F 38% 29.98 in 10.0 mi SSW 16.1 mph 20.7 mph N/A   Clear
2:33 PM 15.8 °F 2.1 °F -5.8 °F 38% 29.97 in 10.0 mi SSW 12.7 mph 25.3 mph N/A   Mostly Cloudy
2:52 PM 14.0 °F -1.4 °F -5.8 °F 41% 29.95 in 10.0 mi South 15.0 mph 24.2 mph N/A   Overcast
3:13 PM 14.0 °F -2.5 °F -4.0 °F 45% 29.94 in 10.0 mi South 17.3 mph 25.3 mph N/A   Overcast
3:33 PM 14.0 °F 0.5 °F -2.2 °F 49% 29.93 in 10.0 mi South 11.5 mph 23.0 mph N/A   Overcast
3:52 PM 14.0 °F -3.0 °F -2.2 °F 49% 29.93 in 10.0 mi South 18.4 mph 24.2 mph N/A   Overcast
4:13 PM 12.2 °F -2.5 °F -2.2 °F 53% 29.92 in 10.0 mi South 12.7 mph 21.9 mph N/A   Overcast
4:33 PM 12.2 °F -3.7 °F -2.2 °F 53% 29.91 in 10.0 mi South 15.0 mph 21.9 mph N/A   Overcast
4:52 PM 12.2 °F -4.3 °F -2.2 °F 53% 29.91 in 10.0 mi South 16.1 mph 21.9 mph N/A   Overcast
5:13 PM 12.2 °F -4.3 °F -2.2 °F 53% 29.90 in 10.0 mi South 16.1 mph 21.9 mph N/A   Overcast
5:33 PM 12.2 °F -3.7 °F -2.2 °F 53% 29.89 in 10.0 mi South 15.0 mph 23.0 mph N/A   Overcast
5:52 PM 12.2 °F -3.7 °F -2.2 °F 53% 29.88 in 10.0 mi South 15.0 mph 19.6 mph N/A   Overcast
6:13 PM 12.2 °F -1.8 °F -2.2 °F 53% 29.88 in 10.0 mi South 11.5 mph 21.9 mph N/A   Overcast
6:33 PM 12.2 °F -3.7 °F -0.4 °F 57% 29.86 in 10.0 mi South 15.0 mph 24.2 mph N/A   Mostly Cloudy
6:52 PM 12.2 °F -4.8 °F 1.4 °F 62% 29.85 in 3.0 mi South 17.3 mph 26.5 mph N/A Snow Light Snow
7:13 PM 12.2 °F -3.1 °F 3.2 °F 67% 29.85 in 10.0 mi South 13.8 mph 23.0 mph N/A Snow Light Snow
7:32 PM 12.2 °F -3.1 °F 3.2 °F 67% 29.84 in 4.0 mi South 13.8 mph 26.5 mph N/A Snow Light Snow
7:53 PM 12.2 °F -3.1 °F 5.0 °F 73% 29.84 in 5.0 mi SSW 13.8 mph 20.7 mph N/A Snow Light Snow
8:13 PM 12.2 °F -1.8 °F 6.8 °F 79% 29.85 in 2.0 mi SSW 11.5 mph 20.7 mph N/A Snow Light Snow
8:30 PM 10.4 °F -4.8 °F 6.8 °F 85% 29.86 in 2.5 mi SSW 12.7 mph 20.7 mph N/A Snow Light Snow
8:53 PM 10.4 °F -3.3 °F 6.8 °F 85% 29.88 in 10.0 mi SSW 10.4 mph 18.4 mph N/A   Overcast
9:12 PM 10.4 °F -7.7 °F 5.0 °F 79% 29.87 in 10.0 mi SSW 18.4 mph 25.3 mph N/A   Overcast
9:33 PM 10.4 °F -1.5 °F 3.2 °F 73% 29.88 in 10.0 mi SW 8.1 mph 19.6 mph N/A   Overcast
9:52 PM 10.4 °F -4.1 °F 3.2 °F 73% 29.88 in 10.0 mi SW 11.5 mph 18.4 mph N/A Snow Light Snow
10:13 PM 10.4 °F -6.0 °F 3.2 °F 73% 29.87 in 10.0 mi SSW 15.0 mph 21.9 mph N/A Snow Light Snow
10:33 PM 10.4 °F -3.3 °F 3.2 °F 73% 29.87 in 7.0 mi SW 10.4 mph 17.3 mph N/A Snow Light Snow
10:52 PM 8.6 °F -3.7 °F 5.0 °F 85% 29.87 in 5.0 mi SSW 8.1 mph - N/A Snow Light Snow
11:13 PM 8.6 °F -4.7 °F 5.0 °F 85% 29.87 in 5.0 mi SW 9.2 mph 16.1 mph N/A Snow Light Snow
11:33 PM 8.6 °F -4.7 °F 5.0 °F 85% 29.87 in 5.0 mi SW 9.2 mph - N/A Snow Light Snow
11:52 PM 10.4 °F -4.1 °F 5.0 °F 79% 29.87 in 4.0 mi SSW 11.5 mph 17.3 mph N/A Snow Light Snow